Location: Altmatt
(47.1333°N, 8.7000°E)
Time: 03:00:47
(UTC+00:00)

Cosmos 2058 - Pass Details

Date: 13 July 2020
Orbit: 561 x 584 km, 82.5° (Epoch: 04 August)

Event Time Altitude Azimuth Distance (km) Brightness Sun altitude
Exits shadow 20:09:07 - 150° (SSE) 1,983 5.0 -7.6°
Reaches altitude 10° 20:09:25 10° 148° (SSE) 1,873 4.9 -7.6°
Maximum altitude 20:12:55 27° 90° (E) 1,104 4.0 -8.0°
Drops below altitude 10° 20:16:26 10° 32° (NNE) 1,875 5.7 -8.5°
Sets 20:18:50 0° 20° (NNE) 2,774 6.8 -8.7°
